Wind_Speed
12 13 13 13 13 13 13 13 13 13 13 13 13 13 13 13 13 14 15 14 14 14 14 15 16 16 17 17 18 18 17 17 17 17 17 18 18 18
14 14 15 15 15 15 15 14 14 15 15 15 15 14 14 15 15 15 15 15 15 15 16 16 17 17 18 18 18 18 17 17 18 18 18 18 18 18
16 16 16 17 17 17 17 17 16 16 16 16 16 16 16 16 16 16 17 17 17 17 18 19 19 19 18 18 19 19 19 19 19 19 19 18 18 18
18 18 17 17 17 17 18 18 19 19 18 18 18 19 18 18 18 18 19 19 19 19 19 20 20 21 20 20 20 21 21 21 21 20 20 20 19 19
20 20 20 20 19 19 20 20 19 20 20 19 20 21 20 20 19 19 20 20 21 21 20 20 21 22 22 22 22 22 22 22 22 22 22 22 21 21
22 22 22 22 22 22 22 21 21 21 21 22 22 22 23 22 22 22 22 22 22 22 21 21 22 23 23 23 23 23 23 23 24 23 23 23 23 23
24 23 24 24 23 23 23 23 23 23 23 23 24 25 25 25 25 25 24 25 25 24 24 24 24 24 25 24 24 24 25 25 25 25 25 25 25 25
24 24 25 25 25 25 25 25 25 25 25 25 25 26 27 27 27 28 27 27 27 27 27 27 27 27 27 26 26 26 26 26 26 26 27 27 26 26
25 25 26 26 26 27 27 27 27 27 27 27 27 27 28 29 30 30 29 29 28 28 29 29 29 29 28 28 28 28 28 28 28 27 28 28 28 27
27 27 27 27 28 28 28 28 28 28 29 29 28 28 28 29 30 29 29 30 30 30 30 30 30 30 30 29 29 30 29 29 29 29 28 28 29 29
29 29 29 29 29 29 29 29 29 30 30 30 30 30 30 30 30 30 30 30 30 30 31 31 31 31 31 31 30 30 29 29 29 30 29 28 28 28
30 31 31 30 31 31 31 31 31 31 32 32 32 32 32 31 32 32 31 31 31 31 31 31 31 31 31 31 30 30 30 30 30 30 30 30 29 28
31 32 32 32 32 32 32 32 32 33 33 33 33 34 34 34 34 34 33 33 32 31 31 31 31 31 31 30 30 30 30 30 31 31 31 31 31 30
32 33 34 34 33 32 33 33 33 33 33 34 34 34 34 34 34 34 34 34 32 31 31 31 30 30 30 30 29 30 30 30 30 30 30 30 30 30
32 32 32 32 31 31 32 32 33 32 32 32 33 33 34 34 33 33 34 33 33 32 31 32 31 31 31 30 30 29 29 29 29 29 30 30 30 30
31 30 30 30 30 30 30 30 31 31 31 31 32 33 33 33 33 33 34 33 33 32 32 32 32 31 31 31 30 29 29 30 29 29 30 30 31 31
29 29 28 28 28 29 29 29 30 31 30 30 30 30 30 30 31 32 33 33 33 33 32 33 33 33 33 32 31 30 29 28 29 30 31 31 31 31
29 28 28 28 28 29 29 29 30 31 31 30 30 30 29 29 30 30 30 30 31 30 30 31 32 32 32 31 31 31 30 30 29 30 31 31 30 30
28 27 27 28 28 29 29 29 29 30 30 31 30 30 30 30 30 29 29 29 30 30 29 30 30 30 30 30 30 30 30 30 30 30 30 30 31 31
28 28 28 28 28 29 29 29 28 29 30 30 30 30 30 30 30 29 29 30 30 30 29 29 29 29 30 30 30 30 30 30 30 29 30 31 32 32
29 29 28 28 28 28 28 28 28 29 29 29 29 29 29 29 29 29 29 29 29 29 29 29 29 29 30 29 29 29 30 30 30 30 30 31 31 31
29 29 29 28 27 27 27 26 26 26 26 26 27 27 27 27 28 27 27 28 28 29 29 29 29 30 30 30 29 29 29 30 30 31 31 31 30 30
28 28 28 28 28 26 25 26 26 25 26 25 25 26 26 27 27 27 27 27 27 27 27 28 28 28 29 29 30 30 30 31 31 31 31 30 30 30
Wind_Direction
297 294 294 293 289 287 287 283 277 271 270 268 267 265 266 268 270 264 266 267 265 266 268 268 265 266 269 266 266 264 265 265 265 266 266 266 265 264
293 290 289 289 286 281 282 282 279 274 268 267 268 269 267 268 267 265 269 270 272 270 270 271 270 270 270 271 271 268 267 267 265 265 264 264 265 265
295 290 287 286 285 282 281 281 279 277 273 269 269 270 269 269 269 269 273 272 272 269 267 268 270 270 271 270 271 269 268 266 266 265 264 265 265 266
292 290 287 285 285 283 282 282 280 279 278 272 269 270 270 269 270 270 271 272 272 270 269 269 269 271 271 271 271 270 268 266 266 265 265 267 268 267
290 288 287 284 283 281 281 280 280 279 278 274 270 270 271 269 269 270 271 272 273 270 271 270 270 270 270 270 270 272 270 267 266 266 266 267 267 266
290 287 286 284 281 280 278 277 277 276 276 274 270 269 268 267 267 268 269 270 270 269 270 270 269 269 268 268 268 269 270 270 268 267 267 267 266 265
289 286 284 282 281 279 278 275 275 275 275 274 271 270 269 269 269 268 268 269 268 268 269 269 269 268 267 267 267 268 269 270 268 265 265 266 266 266
289 286 284 282 281 280 278 276 275 275 273 273 272 271 271 270 270 268 267 267 266 266 267 268 270 269 268 266 267 268 269 269 268 266 265 266 267 266
290 287 284 283 281 279 278 277 276 275 274 273 272 271 272 271 271 271 269 266 266 265 265 266 266 267 266 266 267 267 268 267 268 268 267 267 266 266
290 288 285 283 281 280 278 276 275 275 274 273 273 271 271 271 271 271 271 268 267 264 263 264 265 265 264 265 267 267 268 268 268 267 266 266 265 264
290 287 285 283 282 280 279 277 275 274 273 273 272 271 270 270 270 269 268 269 269 267 265 264 264 264 263 264 264 265 267 268 267 266 263 263 264 264
289 287 284 283 282 281 278 276 275 274 273 272 272 272 270 270 269 268 267 268 267 267 267 265 263 263 262 262 263 263 265 266 265 266 263 260 261 262
290 288 285 284 283 281 279 277 276 274 273 272 272 272 271 270 269 267 266 266 266 266 266 264 263 262 263 263 263 263 264 263 263 264 263 261 261 261
291 289 287 285 283 281 280 278 277 276 274 272 271 271 270 270 270 268 266 265 266 265 263 263 262 262 263 262 262 263 263 263 262 261 262 262 262 261
292 289 288 286 284 283 281 278 277 276 274 273 271 270 270 270 270 269 268 267 266 266 265 265 265 264 264 264 263 265 265 263 262 261 260 261 262 262
294 291 289 287 286 284 283 281 279 277 277 275 273 272 270 269 269 268 267 265 264 263 264 264 263 265 266 265 265 265 266 265 264 263 262 261 261 261
296 293 291 288 286 285 284 282 281 280 280 278 275 273 272 270 269 268 267 265 264 263 262 262 262 263 264 262 261 262 263 264 263 262 262 263 262 261
297 294 292 289 287 287 285 283 282 279 279 278 275 272 272 272 271 269 267 265 265 263 261 260 258 260 261 261 262 262 262 263 263 263 264 264 263 263
298 295 293 291 289 288 286 284 282 279 278 278 276 273 272 272 272 271 269 266 264 263 261 259 259 261 261 261 261 261 262 261 263 265 266 264 263 264
298 297 296 294 292 289 287 286 283 281 279 278 277 275 273 271 271 270 269 268 266 263 260 259 261 261 261 261 261 262 264 263 265 267 267 266 265 265
298 297 295 295 293 291 289 287 286 283 281 279 278 276 274 273 271 270 269 269 268 266 262 261 262 261 260 260 261 262 264 265 266 268 268 267 266 267
297 297 296 296 295 293 292 291 290 288 284 281 280 278 276 273 271 271 269 270 269 268 264 262 262 263 262 262 263 263 264 265 266 267 268 268 267 267
299 299 298 297 298 296 294 293 292 290 286 283 281 280 278 276 274 271 271 271 271 269 265 262 263 265 266 264 263 264 265 266 266 268 268 269 268 267
Height
5851 5849 5848 5847 5846 5844 5843 5843 5843 5842 5842 5841 5841 5840 5840 5840 5840 5839 5839 5839 5839 5838 5838 5838 5838 5838 5837 5837 5836 5836 5835 5835 5835 5834 5834 5834 5834 5834
5847 5846 5844 5843 5841 5840 5839 5838 5838 5838 5838 5837 5836 5836 5836 5835 5835 5835 5835 5835 5835 5834 5834 5834 5834 5833 5833 5832 5831 5830 5830 5830 5830 5830 5829 5829 5829 5829
5843 5841 5840 5838 5837 5836 5835 5834 5833 5833 5833 5832 5831 5831 5831 5831 5830 5830 5830 5830 5830 5829 5829 5829 5829 5828 5827 5827 5826 5825 5825 5825 5825 5825 5824 5824 5824 5824
5838 5836 5835 5833 5832 5831 5830 5829 5828 5827 5827 5826 5826 5826 5826 5826 5825 5825 5825 5825 5824 5824 5824 5823 5823 5822 5822 5821 5821 5820 5819 5819 5819 5819 5819 5819 5819 5819
5832 5831 5829 5828 5827 5826 5824 5823 5822 5822 5821 5820 5821 5820 5820 5820 5819 5819 5819 5818 5818 5818 5817 5817 5816 5816 5816 5815 5815 5814 5814 5813 5813 5813 5813 5813 5813 5813
5826 5824 5823 5821 5820 5819 5818 5817 5816 5815 5815 5814 5814 5814 5813 5813 5813 5813 5813 5812 5811 5811 5811 5810 5810 5809 5809 5809 5809 5808 5807 5807 5807 5807 5807 5807 5807 5806
5819 5817 5816 5814 5813 5812 5811 5810 5809 5808 5808 5807 5807 5807 5806 5806 5806 5806 5806 5805 5804 5804 5804 5803 5803 5802 5802 5802 5802 5801 5800 5800 5800 5799 5800 5800 5800 5800
5811 5810 5808 5807 5806 5804 5804 5803 5802 5801 5800 5800 5799 5799 5798 5798 5797 5797 5797 5797 5797 5797 5796 5796 5795 5795 5794 5794 5794 5793 5793 5792 5792 5792 5792 5792 5792 5792
5804 5802 5800 5799 5797 5796 5795 5794 5794 5792 5792 5792 5791 5790 5790 5789 5789 5788 5788 5788 5788 5788 5788 5787 5787 5786 5786 5786 5786 5785 5785 5785 5784 5784 5784 5784 5784 5784
5796 5794 5792 5790 5789 5788 5786 5786 5785 5784 5783 5782 5782 5781 5780 5780 5779 5779 5778 5778 5778 5778 5778 5778 5777 5777 5777 5777 5777 5777 5776 5776 5776 5776 5776 5776 5776 5776
5787 5784 5782 5781 5779 5778 5777 5776 5775 5774 5773 5772 5772 5771 5770 5770 5769 5769 5768 5767 5767 5768 5768 5768 5768 5768 5768 5768 5768 5767 5767 5767 5767 5767 5767 5767 5767 5767
5778 5775 5773 5771 5769 5767 5766 5765 5764 5763 5762 5762 5761 5761 5760 5759 5759 5758 5758 5758 5757 5758 5758 5757 5757 5758 5758 5759 5759 5758 5758 5758 5758 5758 5757 5758 5758 5759
5768 5766 5763 5761 5759 5757 5755 5754 5752 5752 5751 5751 5750 5749 5749 5748 5748 5747 5747 5747 5747 5748 5748 5747 5747 5747 5748 5749 5749 5749 5748 5748 5748 5748 5748 5748 5749 5750
5758 5755 5752 5750 5748 5746 5744 5742 5741 5740 5739 5739 5738 5738 5737 5737 5736 5736 5736 5736 5737 5737 5737 5737 5737 5737 5738 5738 5739 5739 5739 5738 5738 5738 5739 5739 5740 5740
5747 5744 5741 5739 5737 5735 5733 5731 5729 5728 5727 5727 5727 5726 5726 5726 5725 5725 5725 5726 5726 5727 5727 5727 5727 5727 5728 5728 5728 5728 5729 5729 5729 5729 5729 5730 5730 5731
5737 5733 5731 5728 5726 5724 5723 5721 5719 5717 5716 5716 5715 5715 5714 5715 5714 5715 5715 5715 5716 5717 5717 5717 5717 5717 5717 5718 5718 5718 5718 5719 5719 5719 5720 5720 5721 5721
5727 5724 5721 5719 5717 5715 5713 5711 5709 5708 5706 5705 5704 5704 5704 5704 5704 5704 5704 5704 5705 5706 5706 5707 5706 5706 5707 5707 5708 5708 5708 5708 5709 5710 5710 5711 5711 5712
5717 5715 5712 5710 5708 5706 5703 5701 5700 5698 5697 5695 5694 5694 5694 5694 5694 5694 5693 5693 5694 5694 5695 5696 5696 5696 5697 5697 5698 5698 5699 5699 5699 5699 5700 5701 5701 5702
5709 5706 5703 5701 5699 5696 5694 5692 5690 5688 5687 5686 5685 5685 5684 5684 5684 5684 5684 5683 5684 5684 5684 5685 5685 5686 5687 5688 5688 5688 5688 5689 5689 5689 5690 5691 5691 5691
5700 5697 5694 5692 5690 5687 5685 5683 5681 5679 5678 5677 5676 5675 5674 5674 5674 5674 5674 5674 5674 5674 5674 5674 5675 5676 5677 5678 5678 5678 5679 5679 5680 5680 5680 5680 5680 5681
5692 5689 5686 5683 5681 5678 5676 5674 5672 5670 5669 5667 5666 5665 5665 5664 5664 5663 5664 5664 5663 5663 5664 5665 5666 5666 5667 5667 5668 5668 5669 5669 5670 5670 5669 5669 5670 5670
5683 5680 5677 5675 5672 5670 5667 5665 5663 5661 5660 5658 5657 5656 5655 5654 5654 5654 5654 5654 5654 5654 5654 5655 5656 5656 5656 5657 5658 5658 5659 5659 5659 5658 5658 5659 5659 5659
5675 5672 5669 5666 5664 5661 5659 5657 5655 5653 5651 5649 5648 5647 5646 5645 5644 5644 5644 5644 5645 5645 5645 5645 5646 5646 5646 5647 5647 5648 5648 5649 5648 5648 5648 5648 5648 5648